Home > Weather > Fort Liard > Past weeks

Flag for Canada Past Weather in Fort Liard, Northwest Territories, Canada — Yesterday and Last 2 Weeks

Now
62 °F

Cool.


Feels Like: 62 °F
Forecast: 62 / 73 °F
Wind: 1 mph from Southwest

Location: Lindberg Landing

Current Time: Jun 30, 2016 at 12:47:01 AM

Latest Report: Jun 30, 2016 at 12:00 AM


Visibility: N/A

Pressure: 29.98 "Hg

Humidity: 95%

Dew Point: 60 °F

Location of Fort LiardLocation

Past Weather in Fort Liard — Graph

°F

Fort Liard Temperature Yesterday

Maximum temperature yesterday: 84 °F (at 3:00 PM)
Minimum temperature yesterday: 53 °F (at 5:00 AM)
Average temperature yesterday: 67 °F

High & Low Weather Summary for the Past Weeks

 TemperatureHumidityPressure
High89 °F (Jun 20, 5:00 PM)98% (Jun 18, 4:00 AM)30.10 "Hg (Jun 18, 4:00 AM)
Low40 °F (Jun 18, 5:00 AM)15% (Jun 20, 6:00 PM)29.65 "Hg (Jun 20, 9:00 PM)
Average64 °F64%29.89 "Hg
* Reported Jun 14 11:00 PM — Jun 29 11:00 PM, Fort Liard, Weather by CustomWeather, © 2016

Note: Actual official high and low records may vary slightly from our data, if they occured in-between our weather recording intervals... More about our weather records

Advertising

Fort Liard Weather History for the Previous 24 Hours

Scroll right to see more
 ConditionsComfort  
Time TempWeatherWind HumidityBarometerVisibility
11:00 PM
Wed, Jun 29
62 °FCool.2 mph95%29.99 "HgN/A
10:00 PM64 °FMild.3 mph86%30.02 "HgN/A
9:00 PM70 °FMild.2 mph75%29.98 "HgN/A
8:00 PM69 °FMild.2 mph72%29.95 "HgN/A
7:00 PM67 °FMild.5 mph88%29.97 "HgN/A
6:00 PM71 °FMild.3 mph63%29.98 "HgN/A
5:00 PM70 °FMild.2 mph71%29.99 "HgN/A
4:00 PM81 °FPleasantly warm.7 mph34%30.00 "HgN/A
3:00 PM84 °FPleasantly warm.3 mph37%30.01 "HgN/A
2:00 PM82 °FWarm.2 mph47%30.03 "HgN/A
1:00 PM77 °FWarm.3 mph48%30.05 "HgN/A
12:00 PM74 °FMild.3 mph52%30.06 "HgN/A
11:00 AM71 °FMild.3 mph57%30.08 "HgN/A
10:00 AM68 °FMild.3 mph60%30.08 "HgN/A
9:00 AM66 °FMild.3 mph66%30.08 "HgN/A
8:00 AM64 °FMild.3 mph69%30.08 "HgN/A
7:00 AM61 °FCool.2 mph78%30.08 "HgN/A
6:00 AM54 °FCool.1 mph92%30.07 "HgN/A
5:00 AM53 °FCool.1 mph94%30.07 "HgN/A
4:00 AM55 °FCool.2 mph92%30.06 "HgN/A
3:00 AM56 °FCool.1 mph87%30.06 "HgN/A
2:00 AM58 °FCool.1 mph91%30.06 "HgN/A
1:00 AM60 °FCool.2 mph90%30.05 "HgN/A
12:00 AM63 °FMild.1 mph85%30.05 "HgN/A
Weather by CustomWeather, © 2016

See weather overviewHow to use our weather pages